GSAT0209 (GALILEO 12) (41174 NORAD) Tracking and Keplerian Element Data

This shows tracking and keplerian element data for the satellite.

Feedback or suggestion? Click here.




ElementValue
Catalog41174
NameGSAT0209 (GALILEO 12)
Epoch Orbit5214
Epoch Day158.18353045
Epoch Year2024
RAAN121.6168
Inclination55.4212
Eccentricity0.0005345
Argument of Perigee314.6644
Mean Anonmoly45.2318
Mean Motion1.70474068
Decay Rate9E-08
L11 41174U 15079A 24158.18353045 .00000009 00000+0 00000+0 0 9995
L22 41174 55.4212 121.6168 0005345 314.6644 45.2318 1.70474068 52140



Live tracking and technical data element details for GSAT0209 (GALILEO 12) (NORAD 41174). GSAT0209 (GALILEO 12) can be tracked NOW for your location showing map with azimuth and elevation plus other details from your city location.







IsCatalogInMostPopularTable: catalog: 41174, numindb: 632
Update: records affected: 1



GetName: 41174 GSAT0209 (GALILEO 12)

Hit Count: updated at: Mon, 17 Jun 2024 23:18:51 GMT